This is the latest recevied weather packets stored in our database for station/object N4QB-13. If no packets are shown the sender has not sent any weather packets the latest 10 day(s).
| Time | Temp. | Humidity | Pressure | Rain* | Wind** | Luminosity | Snow |
|---|---|---|---|---|---|---|---|
| 1777382690 | 18.33° C | 92% | 1019.3 hPa | 0 mm | - | 51 W/m² | - |
| 1777382385 | 18.89° C | 92% | 1019.3 hPa | 0 mm | - | 38 W/m² | - |
| 1777382082 | 18.33° C | 93% | 1019.8 hPa | 0 mm | - | 122 W/m² | - |
| 1777381601 | 17.78° C | 94% | 1019.1 hPa | 0 mm | - | 25 W/m² | - |
| 1777381298 | 17.78° C | 94% | 1019.1 hPa | 0 mm | - | 25 W/m² | - |
| 1777380994 | 17.78° C | 94% | 1019 hPa | 0 mm | - | 40 W/m² | - |
| 1777380690 | 17.78° C | 94% | 1019 hPa | 0 mm | - | 51 W/m² | - |
| 1777380387 | 17.22° C | 95% | 1018.6 hPa | 0 mm | - | 131 W/m² | - |
| 1777380083 | 16.67° C | 95% | 1018.6 hPa | 0 mm | - | 71 W/m² | - |
| 1777379779 | 16.67° C | 96% | 1018.6 hPa | 0 mm | - | 25 W/m² | - |
| 1777379475 | 16.11° C | 96% | 1018.8 hPa | 0 mm | - | 24 W/m² | - |
| 1777379170 | 16.11° C | 96% | 1018.9 hPa | 0 mm | - | 50 W/m² | - |
| 1777378866 | 15.56° C | 96% | 1019 hPa | 0 mm | - | 30 W/m² | - |
| 1777378562 | 15.56° C | 96% | 1019.1 hPa | 0 mm | - | 30 W/m² | - |
| 1777378258 | 15.56° C | 96% | 1018.8 hPa | 0 mm | - | 23 W/m² | - |
| 1777377956 | 15° C | 96% | 1019.2 hPa | 0 mm | - | 23 W/m² | - |
| 1777377656 | 15° C | 96% | 1019 hPa | 0 mm | - | 17 W/m² | - |
| 1777377352 | 15° C | 96% | 1019 hPa | 0 mm | - | 16 W/m² | - |
| 1777377049 | 15° C | 96% | 1019 hPa | 0 mm | - | 15 W/m² | - |
| 1777376746 | 14.44° C | 96% | 1018.9 hPa | 0 mm | - | 14 W/m² | - |
| 1777376443 | 14.44° C | 96% | 1019 hPa | 0 mm | - | 13 W/m² | - |
| 1777376138 | 14.44° C | 96% | 1018.9 hPa | 0 mm | - | 12 W/m² | - |
| 1777375838 | 14.44° C | 96% | 1018.9 hPa | 0 mm | - | 10 W/m² | - |
| 1777375533 | 14.44° C | 96% | 1018.7 hPa | 0 mm | - | 8 W/m² | - |
| 1777375230 | 14.44° C | 96% | 1018.7 hPa | 0 mm | - | 7 W/m² | - |
* Rain latest hour (hover to see other rain measurements)
** Current wind speed in m/s (hover to see current wind gust speed)